CEB206 RPLL-RPVI

Flight info

Callsign CEB206
Flight time 0h 46m
Altitude 31000
Route DCT VERDE W24 TAPER B472 LAMBO LAMBO2N
Aircraft A20N/M-V/N

Departure

Time 2026-04-22 01:46
Airport Ninoy Aquino International Airport (RPLL)

Arrival

Time 2026-04-22 02:32
Airport Iloilo International Airport (RPVI)
Time Latitude Longitude Altitude Speed Heading
2026-04-22 01:31 14.51851 121.01322 82 ft 0 kts 44°
2026-04-22 01:38 14.51840 121.01311 82 ft 2 kts 44°
2026-04-22 01:38 14.51830 121.01301 82 ft 2 kts 44°
2026-04-22 01:38 14.51819 121.01290 82 ft 2 kts 44°
2026-04-22 01:38 14.51808 121.01279 82 ft 2 kts 44°
2026-04-22 01:39 14.51799 121.01266 82 ft 2 kts 72°
2026-04-22 01:39 14.51797 121.01251 82 ft 2 kts 94°
2026-04-22 01:39 14.51800 121.01236 82 ft 2 kts 117°
2026-04-22 01:39 14.51806 121.01227 82 ft 0 kts 132°
2026-04-22 01:40 14.51811 121.01221 82 ft 0 kts 135°
2026-04-22 01:41 14.51804 121.01229 82 ft 4 kts 134°
2026-04-22 01:42 14.51759 121.01276 82 ft 13 kts 134°
2026-04-22 01:42 14.51679 121.01360 82 ft 19 kts 134°
2026-04-22 01:42 14.51570 121.01471 82 ft 24 kts 135°
2026-04-22 01:42 14.51463 121.01582 82 ft 10 kts 140°
2026-04-22 01:43 14.51393 121.01572 82 ft 10 kts 186°
2026-04-22 01:43 14.51329 121.01617 82 ft 11 kts 134°
2026-04-22 01:43 14.51268 121.01679 82 ft 12 kts 135°
2026-04-22 01:43 14.51202 121.01747 82 ft 13 kts 135°
2026-04-22 01:44 14.51132 121.01820 82 ft 14 kts 134°
2026-04-22 01:44 14.51073 121.01863 82 ft 6 kts 185°
2026-04-22 01:44 14.51067 121.01862 82 ft 1 kts 197°
2026-04-22 01:44 14.51054 121.01854 82 ft 3 kts 212°
2026-04-22 01:45 14.51033 121.01820 82 ft 7 kts 252°
2026-04-22 01:45 14.51050 121.01762 82 ft 4 kts 314°
2026-04-22 01:45 14.51070 121.01740 82 ft 24 kts 314°
2026-04-22 01:45 14.51416 121.01385 82 ft 110 kts 314°
2026-04-22 01:46 14.52113 121.00661 169 ft 164 kts 315°
2026-04-22 01:46 14.52904 120.99841 863 ft 160 kts 317°
2026-04-22 01:46 14.53636 120.99039 1664 ft 153 kts 316°
2026-04-22 01:46 14.54354 120.98212 2200 ft 159 kts 309°
2026-04-22 01:47 14.54730 120.97087 2548 ft 177 kts 266°
2026-04-22 01:47 14.54232 120.95914 2896 ft 187 kts 218°
2026-04-22 01:47 14.53036 120.95466 3282 ft 190 kts 175°
2026-04-22 01:47 14.51670 120.95595 3686 ft 205 kts 170°
2026-04-22 01:48 14.50168 120.95731 4010 ft 229 kts 172°
2026-04-22 01:48 14.48495 120.95867 4435 ft 250 kts 172°
2026-04-22 01:48 14.46681 120.96008 4955 ft 268 kts 172°
2026-04-22 01:48 14.44756 120.96152 5697 ft 277 kts 173°
2026-04-22 01:49 14.42807 120.96295 6562 ft 280 kts 173°
2026-04-22 01:49 14.40832 120.96440 7397 ft 284 kts 173°
2026-04-22 01:49 14.38875 120.96585 8177 ft 287 kts 173°
2026-04-22 01:49 14.36855 120.96735 8943 ft 291 kts 173°
2026-04-22 01:50 14.34794 120.96888 9683 ft 295 kts 173°
2026-04-22 01:50 14.32721 120.97044 10369 ft 300 kts 174°
2026-04-22 01:50 14.30577 120.97206 10763 ft 316 kts 174°
2026-04-22 01:50 14.28316 120.97376 11085 ft 334 kts 174°
2026-04-22 01:51 14.25939 120.97554 11385 ft 351 kts 174°
2026-04-22 01:51 14.23433 120.97741 11830 ft 361 kts 175°
2026-04-22 01:51 14.20910 120.97929 12462 ft 365 kts 175°
2026-04-22 01:51 14.18379 120.98117 13079 ft 367 kts 175°
2026-04-22 01:52 14.15818 120.98308 13676 ft 371 kts 175°
2026-04-22 01:52 14.13198 120.98502 14262 ft 374 kts 175°
2026-04-22 01:52 14.10579 120.98698 14824 ft 377 kts 175°
2026-04-22 01:52 14.07906 120.98898 15384 ft 381 kts 175°
2026-04-22 01:53 14.05256 120.99094 15913 ft 384 kts 176°
2026-04-22 01:53 14.02564 120.99294 16417 ft 388 kts 176°
2026-04-22 01:53 13.99808 120.99499 16925 ft 391 kts 176°
2026-04-22 01:53 13.97063 120.99703 17407 ft 395 kts 176°
2026-04-22 01:54 13.94332 120.99908 17881 ft 398 kts 176°
2026-04-22 01:54 13.91545 121.00116 18363 ft 400 kts 176°
2026-04-22 01:54 13.88753 121.00325 18853 ft 402 kts 176°
2026-04-22 01:54 13.85927 121.00535 19345 ft 404 kts 176°
2026-04-22 01:55 13.83037 121.00750 19824 ft 406 kts 176°
2026-04-22 01:55 13.80233 121.00959 20279 ft 409 kts 176°
2026-04-22 01:55 13.77357 121.01173 20727 ft 411 kts 176°
2026-04-22 01:55 13.74489 121.01387 21151 ft 414 kts 176°
2026-04-22 01:56 13.71582 121.01603 21570 ft 417 kts 176°
2026-04-22 01:56 13.68695 121.01818 21982 ft 419 kts 177°
2026-04-22 01:56 13.65743 121.02039 22425 ft 422 kts 177°
2026-04-22 01:56 13.62788 121.02258 22878 ft 424 kts 177°
2026-04-22 01:57 13.59852 121.02476 23320 ft 426 kts 177°
2026-04-22 01:57 13.56883 121.02697 23755 ft 428 kts 177°
2026-04-22 01:57 13.53906 121.02943 24165 ft 431 kts 173°
2026-04-22 01:57 13.50962 121.03600 24551 ft 436 kts 163°
2026-04-22 01:58 13.48147 121.04800 24949 ft 439 kts 153°
2026-04-22 01:58 13.45504 121.06484 25357 ft 443 kts 147°
2026-04-22 01:58 13.42993 121.08269 25750 ft 445 kts 146°
2026-04-22 01:58 13.40423 121.10119 26146 ft 447 kts 146°
2026-04-22 01:59 13.37865 121.11944 26535 ft 449 kts 146°
2026-04-22 01:59 13.35283 121.13768 26904 ft 452 kts 146°
2026-04-22 01:59 13.32673 121.15597 27287 ft 453 kts 146°
2026-04-22 01:59 13.30044 121.17439 27783 ft 452 kts 146°
2026-04-22 02:00 13.27459 121.19248 28313 ft 450 kts 146°
2026-04-22 02:00 13.24873 121.21060 28808 ft 448 kts 146°
2026-04-22 02:00 13.22300 121.22864 29254 ft 447 kts 146°
2026-04-22 02:00 13.19706 121.24680 29628 ft 448 kts 146°
2026-04-22 02:01 13.17132 121.26484 29936 ft 450 kts 146°
2026-04-22 02:01 13.14531 121.28306 30239 ft 452 kts 146°
2026-04-22 02:01 13.11922 121.30134 30545 ft 454 kts 146°
2026-04-22 02:01 13.09281 121.31983 30844 ft 455 kts 146°
2026-04-22 02:02 13.06649 121.33826 30959 ft 457 kts 146°
2026-04-22 02:02 13.03993 121.35686 30963 ft 457 kts 146°
2026-04-22 02:02 12.98724 121.39372 30964 ft 457 kts 146°
2026-04-22 02:03 12.93412 121.43088 30958 ft 457 kts 146°
2026-04-22 02:03 12.88137 121.46776 30949 ft 457 kts 146°
2026-04-22 02:04 12.80217 121.52306 30928 ft 457 kts 146°
2026-04-22 02:05 12.74954 121.55995 30927 ft 457 kts 146°
2026-04-22 02:05 12.69721 121.59652 30925 ft 456 kts 146°
2026-04-22 02:06 12.64473 121.63316 30927 ft 457 kts 146°
2026-04-22 02:06 12.59204 121.66988 30926 ft 456 kts 146°
2026-04-22 02:07 12.53956 121.70644 30925 ft 456 kts 146°
2026-04-22 02:07 12.51314 121.72486 30718 ft 456 kts 146°
2026-04-22 02:07 12.48676 121.74325 30458 ft 453 kts 146°
2026-04-22 02:07 12.46090 121.76125 30200 ft 450 kts 146°
2026-04-22 02:08 12.43512 121.77920 29943 ft 447 kts 146°
2026-04-22 02:08 12.40937 121.79713 29684 ft 445 kts 146°
2026-04-22 02:08 12.38335 121.81426 29424 ft 443 kts 149°
2026-04-22 02:08 12.35641 121.82980 29166 ft 442 kts 153°
2026-04-22 02:09 12.32865 121.84364 28908 ft 441 kts 156°
2026-04-22 02:09 12.30071 121.85602 28657 ft 441 kts 157°
2026-04-22 02:09 12.27242 121.86834 28403 ft 441 kts 157°
2026-04-22 02:09 12.24393 121.88072 28146 ft 442 kts 157°
2026-04-22 02:10 12.21543 121.89311 27890 ft 443 kts 157°
2026-04-22 02:10 12.18690 121.90554 27637 ft 444 kts 157°
2026-04-22 02:10 12.15820 121.91804 27382 ft 445 kts 157°
2026-04-22 02:10 12.12963 121.93049 27130 ft 446 kts 157°
2026-04-22 02:11 12.10103 121.94295 26877 ft 445 kts 157°
2026-04-22 02:11 12.07259 121.95535 26627 ft 443 kts 157°
2026-04-22 02:11 12.04402 121.96780 26373 ft 441 kts 157°
2026-04-22 02:11 12.01596 121.98002 26124 ft 440 kts 156°
2026-04-22 02:12 11.98744 121.99245 25871 ft 438 kts 156°
2026-04-22 02:12 11.95901 122.00483 25619 ft 437 kts 156°
2026-04-22 02:12 11.93090 122.01709 25368 ft 436 kts 156°
2026-04-22 02:12 11.90279 122.02934 25120 ft 434 kts 157°
2026-04-22 02:13 11.87515 122.04138 24874 ft 433 kts 157°
2026-04-22 02:13 11.84776 122.05330 24627 ft 432 kts 156°
2026-04-22 02:13 11.81917 122.06573 24336 ft 431 kts 157°
2026-04-22 02:13 11.79106 122.07796 24004 ft 429 kts 156°
2026-04-22 02:14 11.76331 122.09003 23575 ft 427 kts 156°
2026-04-22 02:14 11.73551 122.10212 23081 ft 424 kts 156°
2026-04-22 02:14 11.70840 122.11391 22576 ft 420 kts 157°
2026-04-22 02:14 11.68163 122.12555 22067 ft 417 kts 157°
2026-04-22 02:15 11.65505 122.13711 21573 ft 414 kts 157°
2026-04-22 02:15 11.62850 122.14865 21071 ft 412 kts 157°
2026-04-22 02:15 11.60213 122.16010 20557 ft 410 kts 157°
2026-04-22 02:15 11.57594 122.17147 20039 ft 408 kts 157°
2026-04-22 02:16 11.54983 122.18280 19529 ft 406 kts 157°
2026-04-22 02:16 11.52390 122.19406 19009 ft 403 kts 157°
2026-04-22 02:16 11.49818 122.20523 18507 ft 401 kts 157°
2026-04-22 02:16 11.47249 122.21639 17996 ft 399 kts 157°
2026-04-22 02:17 11.44687 122.22752 17488 ft 396 kts 157°
2026-04-22 02:17 11.42147 122.23852 16994 ft 393 kts 157°
2026-04-22 02:17 11.39632 122.24944 16491 ft 391 kts 157°
2026-04-22 02:17 11.37121 122.26033 15989 ft 388 kts 157°
2026-04-22 02:18 11.34628 122.27114 15480 ft 385 kts 157°
2026-04-22 02:18 11.32199 122.28167 14990 ft 382 kts 157°
2026-04-22 02:18 11.29744 122.29230 14485 ft 380 kts 157°
2026-04-22 02:18 11.27294 122.30294 13990 ft 376 kts 158°
2026-04-22 02:19 11.24911 122.31327 13670 ft 367 kts 157°
2026-04-22 02:19 11.22578 122.32337 13513 ft 353 kts 157°
2026-04-22 02:19 11.20350 122.33302 13364 ft 340 kts 158°
2026-04-22 02:19 11.18199 122.34234 13223 ft 328 kts 158°
2026-04-22 02:20 11.16093 122.35020 13091 ft 315 kts 163°
2026-04-22 02:20 11.13985 122.35561 12758 ft 311 kts 168°
2026-04-22 02:20 11.11841 122.35998 12368 ft 309 kts 169°
2026-04-22 02:20 11.09735 122.36414 11984 ft 308 kts 169°
2026-04-22 02:21 11.07636 122.36829 11600 ft 306 kts 169°
2026-04-22 02:21 11.05553 122.37244 11240 ft 303 kts 169°
2026-04-22 02:21 11.03471 122.37659 10875 ft 301 kts 168°
2026-04-22 02:21 11.01432 122.38068 10516 ft 299 kts 168°
2026-04-22 02:22 10.99373 122.38482 10145 ft 296 kts 168°
2026-04-22 02:22 10.97372 122.38885 9786 ft 294 kts 168°
2026-04-22 02:22 10.95343 122.39291 9426 ft 291 kts 169°
2026-04-22 02:22 10.93335 122.39431 9068 ft 289 kts 183°
2026-04-22 02:23 10.91368 122.39087 8724 ft 287 kts 193°
2026-04-22 02:23 10.89413 122.38563 8365 ft 285 kts 194°
2026-04-22 02:23 10.87516 122.38032 8015 ft 283 kts 194°
2026-04-22 02:23 10.85608 122.37501 7662 ft 281 kts 193°
2026-04-22 02:24 10.83724 122.36982 7312 ft 280 kts 193°
2026-04-22 02:24 10.81829 122.36464 6964 ft 279 kts 193°
2026-04-22 02:24 10.79963 122.35957 6621 ft 277 kts 192°
2026-04-22 02:24 10.78080 122.35445 6280 ft 276 kts 192°
2026-04-22 02:25 10.76227 122.34943 5945 ft 274 kts 192°
2026-04-22 02:25 10.74386 122.34445 5622 ft 273 kts 192°
2026-04-22 02:25 10.72525 122.33942 5293 ft 272 kts 192°
2026-04-22 02:25 10.70692 122.33446 4973 ft 270 kts 192°
2026-04-22 02:26 10.68883 122.32964 4758 ft 263 kts 189°
2026-04-22 02:26 10.67101 122.32993 4623 ft 244 kts 155°
2026-04-22 02:26 10.65768 122.33975 4415 ft 235 kts 123°
2026-04-22 02:26 10.65081 122.35462 4132 ft 230 kts 106°
2026-04-22 02:27 10.64576 122.37019 3851 ft 230 kts 107°
2026-04-22 02:27 10.64058 122.38552 3574 ft 229 kts 107°
2026-04-22 02:27 10.63599 122.40113 3265 ft 228 kts 93°
2026-04-22 02:27 10.63885 122.41639 3081 ft 219 kts 60°
2026-04-22 02:28 10.64963 122.42698 3051 ft 218 kts 28°
2026-04-22 02:28 10.66409 122.43242 3022 ft 219 kts 19°
2026-04-22 02:28 10.67851 122.43671 2943 ft 208 kts 20°
2026-04-22 02:28 10.69212 122.44119 2803 ft 201 kts 22°
2026-04-22 02:29 10.70517 122.44592 2544 ft 199 kts 22°
2026-04-22 02:29 10.71798 122.45072 2302 ft 191 kts 22°
2026-04-22 02:29 10.73014 122.45525 2051 ft 180 kts 22°
2026-04-22 02:29 10.74163 122.45954 1778 ft 170 kts 22°
2026-04-22 02:30 10.75239 122.46353 1565 ft 159 kts 22°
2026-04-22 02:30 10.76253 122.46730 1361 ft 148 kts 21°
2026-04-22 02:30 10.77191 122.47079 1196 ft 142 kts 21°
2026-04-22 02:30 10.78119 122.47424 997 ft 140 kts 21°
2026-04-22 02:31 10.79024 122.47759 804 ft 136 kts 20°
2026-04-22 02:31 10.79922 122.48091 619 ft 136 kts 19°
2026-04-22 02:31 10.80814 122.48418 464 ft 135 kts 19°
2026-04-22 02:31 10.81692 122.48744 314 ft 131 kts 19°
2026-04-22 02:32 10.82547 122.49059 184 ft 126 kts 19°
2026-04-22 02:32 10.83222 122.49307 176 ft 63 kts 20°
2026-04-22 02:32 10.83460 122.49395 176 ft 20 kts 20°
2026-04-22 02:32 10.83552 122.49446 175 ft 11 kts 64°
2026-04-22 02:33 10.83540 122.49528 175 ft 12 kts 110°
2026-04-22 02:33 10.83520 122.49583 175 ft 6 kts 109°
2026-04-22 02:33 10.83502 122.49633 175 ft 8 kts 110°
2026-04-22 02:33 10.83459 122.49676 175 ft 9 kts 167°
2026-04-22 02:34 10.83386 122.49659 175 ft 11 kts 201°
2026-04-22 02:34 10.83301 122.49628 175 ft 13 kts 200°
2026-04-22 02:34 10.83218 122.49596 175 ft 7 kts 200°
2026-04-22 02:34 10.83191 122.49603 175 ft 4 kts 117°
2026-04-22 02:35 10.83176 122.49628 175 ft 3 kts 112°
2026-04-22 02:35 10.83168 122.49650 175 ft 0 kts 110°
2026-04-22 02:35 10.83166 122.49656 175 ft 1 kts 110°
2026-04-22 02:35 10.83164 122.49663 175 ft 0 kts 110°